Regional Weather Roundup
Issued by NWS

Home | Current Version | Previous Version | Text Only | Print | Product List | Glossary Off
Versions: 1 2 3 4 5 6 7 8 9 10 11 12 13 14 15 16 17 18 19 20 21 22 23 24 25 26 27 28 29 30 31 32 33 34 35 36 37 38 39 40 41 42 43 44 45 46 47 48 49 50

000
ASUS43 KMKX 231721
RWRWI

WISCONSIN REGIONAL WEATHER ROUNDUP
NATIONAL WEATHER SERVICE MILWAUKEE/SULLIVAN WI
1200 PM CDT FRI JUN 23 2017

NOTE: "FAIR" INDICATES FEW OR NO CLOUDS BELOW 12,000 FEET WITH NO
SIGNIFICANT WEATHER AND/OR OBSTRUCTIONS TO VISIBILITY.

WIZ001-002-006>008-014>016-023>028-231800-
NORTHWEST WISCONSIN

CITY           SKY/WX    TMP DP  RH WIND       PRES   REMARKS
SUPERIOR ARPT  NOT AVBL
ASHLAND        CLOUDY    65  49  56 NW10G22   29.70R
HAYWARD        CLOUDY    65  48  54 VRB7G18   29.73R
SIREN          CLOUDY    65  50  59 NW9G16    29.77R
CUMBERLAND     PTSUNNY   63  50  63 W16       29.76R
RICE LAKE      CLOUDY    66  51  57 W12G20    29.77R
CHETEK         CLOUDY    65  52  62 W9G16     29.76R
LADYSMITH      CLOUDY    67  51  56 NW14      29.75R
EAU CLAIRE     MOSUNNY   70  51  51 NW17G28   29.74S
MENOMONIE      PTSUNNY   68  52  57 W12       29.77S
NEW RICHMOND   PTSUNNY   67  52  58 W16       29.78S
OSCEOLA        PTSUNNY   67  53  60 NW9       29.80S
$$

WIZ003>005-009-010-017-018-231800-
NORTH CENTRAL WISCONSIN

CITY           SKY/WX    TMP DP  RH WIND       PRES   REMARKS
MANITOWISH WTR CLOUDY    65  47  52 W15G22    29.68S
ARBOR VITAE    MOSUNNY   67  50  54 NW9       29.68S
WOODRUFF       MOSUNNY   67  50  54 NW9       29.68S
RHINELANDER    MOSUNNY   69  51  52 W17G24    29.68S
EAGLE RIVER    MOSUNNY   67  46  47 NW12G21   29.67S
LAND O LAKES   PTSUNNY   67  45  44 W12G18    29.68S
PHILLIPS       PTSUNNY   65  50  58 W7G16     29.70S
TOMAHAWK       NOT AVBL
MEDFORD        MOSUNNY   66  52  59 W10       29.71S
MERRILL        SUNNY     71  52  51 W17       29.69R
$$

WIZ029-030-035-036-043>047-231800-
CENTRAL WISCONSIN

CITY           SKY/WX    TMP DP  RH WIND       PRES   REMARKS
WAUSAU         SUNNY     72  50  45 W12G26    29.68R
MOSINEE        MOSUNNY   72  50  46 W18G25    29.71R
MARSHFIELD     SUNNY     70  52  52 W14       29.71R
STEVENS POINT  SUNNY     71  51  47 W13G20    29.70S
WAUPACA        SUNNY     78  53  41 W16       29.67F
WAUTOMA        MOSUNNY   76  59  55 W16       29.69F
WISC RAPIDS    SUNNY     76  55  48 W13G18    29.71S
CAMP DOUGLAS   MOSUNNY   73  57  56 NW13G23   29.71S
$$

WIZ011>013-019>022-031-037>040-048>050-231800-
NORTHEAST WISCONSIN

CITY           SKY/WX    TMP DP  RH WIND       PRES   REMARKS
ANTIGO         SUNNY     69  51  51 W13       29.68S
SHAWANO        SUNNY     77  52  41 W10G18    29.65S
OCONTO         MOSUNNY   77  48  35 W12       29.63S
STURGEON BAY     N/A     74  53  48 W8          N/A
GREEN BAY      MOSUNNY   77  53  43 W8G18     29.65F
MANITOWOC      MOSUNNY   77  46  33 W9        29.66F
APPLETON       MOSUNNY   73  50  43 W12       29.67S
CLINTONVILLE   SUNNY     75  46  35 W15       29.66S
OSHKOSH        MOSUNNY   75  55  49 W7        29.67F
$$

WIZ032>034-041-042-053>061-231800-
SOUTHWEST WISCONSIN

CITY           SKY/WX    TMP DP  RH WIND       PRES   REMARKS
LA CROSSE      SUNNY     77  54  44 NW12      29.74R
SPARTA         MOSUNNY   72  57  58 W12       29.74S
VIROQUA        SUNNY     72  55  55 NW15      29.76S
BOSCOBEL       SUNNY     79  57  46 W14       29.73F HX  80
PRAIRIE DU CHI SUNNY     77  56  48 W16G22    29.74S
PLATTEVILLE    SUNNY     77  57  49 W16G25    29.77S
$$

WIZ056-057-062-063-064-067-068-231800-
SOUTH CENTRAL WISCONSIN

CITY           SKY/WX    TMP DP  RH WIND       PRES   REMARKS
REEDSBURG      MOSUNNY   76  59  55 W14       29.71F
BARABOO/DELLS  SUNNY     76  59  55 W10       29.71F
LONE ROCK      SUNNY     75  62  64 W9        29.72F
MINERAL POINT  SUNNY     77  59  53 W15       29.75F
MADISON        MOSUNNY   75  59  57 VRB5      29.71F
MIDDLETON      MOSUNNY   77  59  54 W9        29.73S
WATERTOWN      CLOUDY    75  53  45 W8        29.70S
MONROE         SUNNY     75  55  50 W8        29.75S
JANESVILLE     MOSUNNY   79  50  36 NW13      29.72S
$$

WIZ051-052-058>065-066-070>072-231800-
SOUTHEAST WISCONSIN

CITY           SKY/WX    TMP DP  RH WIND       PRES   REMARKS
MILWAUKEE      PTSUNNY   80  45  28 NW17G24   29.68F
WAUKESHA       SUNNY     73  52  46 W10       29.71F
MILWAUKEE/TIMM SUNNY     75  43  31 NW10G17   29.69F
RACINE         CLOUDY    77  53  43 NW10G20   29.70F
KENOSHA        CLOUDY    76  55  48 N13       29.70S
FOND DU LAC    MOSUNNY   76  49  38 W9        29.68F
SHEBOYGAN      PTSUNNY   76  51  41 NW8G18    29.67F
WEST BEND      PTSUNNY   73  45  35 NW9G16    29.69S
JUNEAU         CLOUDY    74  50  43 W8        29.71F
$$

LSZ147-162-231800-
LAKE SUPERIOR

STATION/POSITION TIME  TEMP    WIND        PRES    WAVE
                       AIR SEA DIR/SP/G            HT/PER
                 (UTC) (F)     (DEG/KT/KT) (MB)    (FT/S)
W MID LAKE BUOY  1650   47 39  250/ 14/ 16 1003.4R   2/ 4
DEVILS ISLAND    1700   56     240/ 18/ 20 1004.4R
SAXON HARBOR     1640   64     310/ 11/ 19 1005.1R
$$

LMZ867-665-643>646-231800-
LAKE MICHIGAN

STATION/POSITION TIME  TEMP    WIND        PRES    WAVE
                       AIR SEA DIR/SP/G            HT/PER
                 (UTC) (F)     (DEG/KT/KT) (MB)    (FT/S)
CHAMBERS ISLAND  1640   72     200/  6/ 10 1003.0F
S GREEN BAY BUOY 1700   71     220/  8/ 10 1003.4
N MID LAKE BUOY  1650   60 57  220/  8/  8 1003.3F   1
NORTHPORT PIER   1640   73     230/  4/ 10 1002.7F
KEWAUNEE LAKESHO 1654   76     310/  7/ 12 1003.7F
SHEBOYGAN LAKESH 1700   75     310/ 15/ 19 1003.9F
PORT WASHINGTON  1640   78     340/  6/ 11 1005.8F
ATWATER BUOY     1609   68 60  310/  8/ 10 1005.6F
MILWAUKEE LAKESH 1700   76     310/ 11/ 15   N/A
S MID LAKE BUOY  1650   63 61  310/  8/ 10 1005.1R   1
KENOSHA   LAKESH 1700   75     320/ 14/ 21 1005.1
$$

TC  - TEMPERATURE IN CELSIUS
VSB - VISIBILITY IN STATUTE MILES
WCI - WIND CHILL INDEX
HX  - HEAT INDEX





USA.gov is the U.S. government's official web portal to all federal, state and local government web resources and services.